Powrót do katalogu

ARIANE 2 DEB

LostGTO
NORAD 33561·DEBRIS·🇫🇷 France

Wystrzelony Jan 27, 1989 z Guiana Space Centre

Loading…

TLE

NieaktualneSource: Space-Track

Epoka: Jul 5, 2025, 10:33 UTC

1 33561U 89006BD  25186.43971828 -.00000105  00000-0  00000-0 0  9992
2 33561   9.3072   3.7623 6985237 234.5818  18.5741  2.22242804  6124

Śledź ARIANE 2 DEB w czasie rzeczywistym z AllMySat

Download on the App Store